Theta_e
340 342 343 343 344 344 343 344 344 344 344 344 340 333 329 327 326 326 327 331 333 331 330 332 333 335 335 335 334 333 333 333 333 334 335 336 338 340 341 341 340 341 342 342 343 342 342 343 343 343 341 340 338 337 337 338 339 340 341 342 343 343 342 342 342 342 342 343 344 343 343 343 343 343 343 343 342 342 342 341 339 338 338 337 335
341 342 343 342 343 343 343 344 343 344 343 339 333 328 327 326 326 328 330 332 332 330 333 337 339 338 337 336 336 335 336 335 335 336 337 338 339 341 342 342 342 342 343 343 342 341 342 343 344 343 341 341 339 337 337 338 339 341 340 341 343 343 342 342 343 342 342 342 343 343 343 343 343 343 342 342 342 341 340 339 338 338 337 335 334
341 342 342 342 343 344 343 343 344 343 338 331 327 326 328 328 330 331 332 332 330 330 332 338 340 340 340 339 338 337 337 337 337 338 339 339 340 342 342 342 343 343 344 343 342 342 342 344 344 342 341 342 340 336 335 337 338 340 340 341 342 342 342 342 342 342 342 342 342 342 342 343 342 342 342 342 341 339 338 338 338 338 337 335 334
341 342 341 342 343 344 343 343 344 339 331 327 328 331 333 334 334 334 334 334 332 330 330 334 337 338 339 339 338 337 337 338 338 339 339 340 341 342 342 343 343 344 344 343 343 343 343 344 344 343 342 343 340 334 332 334 337 340 341 341 341 341 341 341 342 341 341 341 341 341 341 341 342 342 341 341 340 339 338 338 338 338 337 336 334
341 341 341 343 342 343 343 343 341 332 329 331 334 337 337 337 336 336 336 335 334 332 330 331 335 337 338 339 339 339 339 338 338 339 340 340 341 342 342 342 343 343 343 343 343 343 343 343 344 343 343 342 341 337 334 333 336 338 338 338 338 338 338 339 341 341 340 340 340 340 340 340 341 341 340 340 339 338 337 337 338 338 338 336 335
341 340 341 342 342 342 340 339 335 331 333 336 337 337 337 336 336 335 335 335 335 334 332 332 335 337 338 339 340 340 340 340 340 340 341 341 342 341 341 342 342 342 342 343 342 342 342 343 343 343 343 342 342 340 338 336 336 337 337 337 336 335 335 334 335 338 339 338 339 339 340 340 340 341 340 339 338 336 336 336 337 338 338 337 335
340 339 340 340 340 339 337 336 333 333 336 338 337 336 336 336 336 335 335 336 336 335 334 333 335 336 338 339 340 340 341 341 340 340 341 341 341 341 341 341 341 342 342 343 343 341 342 343 343 343 342 342 342 341 340 339 339 339 339 339 339 338 337 336 331 332 336 338 339 340 339 340 340 340 339 338 337 335 336 337 338 339 338 336 335
339 338 338 337 337 336 336 335 334 336 337 338 338 337 336 335 335 335 335 335 335 335 335 335 336 336 337 338 339 340 341 340 340 341 340 340 341 340 340 340 340 341 342 342 343 342 342 342 342 343 343 342 341 340 340 340 340 339 338 338 339 339 339 339 334 330 335 338 338 340 339 339 339 339 338 336 336 335 336 338 338 338 338 337 335
339 338 336 336 336 336 337 336 336 338 339 339 338 337 336 335 335 335 334 334 334 334 335 335 336 336 336 337 338 339 340 340 340 341 341 341 341 339 339 340 339 340 340 340 341 340 340 341 342 342 343 342 341 340 339 338 338 336 336 336 337 339 338 339 337 332 333 337 338 339 338 338 338 337 337 335 334 335 336 339 339 338 338 337 336
339 337 336 335 335 336 336 336 338 339 339 338 336 335 334 334 335 335 335 334 334 334 335 335 335 336 336 336 336 337 338 340 339 340 341 341 341 339 339 339 340 339 339 339 340 338 335 337 339 340 341 341 340 339 338 336 335 334 334 336 336 337 338 338 338 334 331 335 337 336 336 335 335 336 336 334 333 335 337 338 338 338 338 337 337
338 338 338 337 337 337 336 336 337 337 335 331 328 328 328 329 330 332 333 334 334 334 334 335 335 335 335 335 335 336 337 338 338 339 339 340 340 339 338 339 340 340 340 340 340 338 333 331 334 337 338 339 339 338 336 333 332 333 335 337 337 336 337 337 337 337 331 332 335 333 333 333 333 336 335 335 334 336 338 338 338 338 338 337 337
338 338 335 333 331 331 331 329 328 328 325 323 322 322 323 323 324 326 327 330 333 334 334 334 334 334 334 334 334 335 336 337 338 337 338 339 340 339 338 339 339 340 341 340 339 339 336 330 328 332 335 337 336 336 334 332 332 334 336 336 336 335 336 336 336 338 333 329 332 331 332 332 332 335 336 337 337 337 338 337 337 337 337 337 337
334 332 328 325 326 328 328 327 324 323 322 322 322 322 322 323 324 325 325 326 329 332 334 334 334 334 334 334 334 334 334 336 338 337 337 339 340 339 339 339 339 340 340 340 339 338 338 334 329 328 331 334 334 334 332 330 333 335 336 335 335 335 335 336 336 338 336 329 327 329 332 332 333 337 337 337 338 338 338 337 337 337 337 337 337
327 326 326 327 329 330 331 331 330 327 327 327 326 324 324 326 327 326 326 328 330 330 332 333 333 334 333 333 334 333 334 336 338 339 338 338 337 336 337 337 338 339 339 339 339 338 337 337 335 331 329 330 331 332 330 329 333 335 335 335 335 335 335 336 336 337 338 333 328 329 332 332 334 338 337 336 338 338 338 338 338 337 337 337 336
329 330 330 330 330 330 331 333 332 331 330 330 331 329 328 330 330 327 326 328 330 332 333 333 333 333 332 333 333 332 333 335 338 338 337 336 333 332 334 335 336 337 337 338 339 338 337 337 337 335 332 329 328 329 329 329 332 333 334 335 335 335 335 335 336 337 338 337 333 331 332 332 335 338 337 336 338 338 338 338 338 337 336 337 336
332 333 332 331 331 331 332 332 332 331 331 332 332 332 332 332 332 330 328 328 328 331 334 335 335 335 333 334 333 333 334 335 336 336 335 333 333 334 336 336 337 338 337 337 338 339 338 337 337 337 336 334 330 329 329 330 331 332 334 334 335 335 335 335 336 336 336 337 337 334 333 332 335 338 338 337 338 337 337 338 338 337 337 337 335
334 334 333 332 332 332 332 333 332 332 332 332 333 333 334 333 334 333 332 331 330 330 333 334 335 337 336 335 335 335 336 335 334 334 334 334 335 335 336 336 336 337 335 335 337 339 338 337 338 337 338 338 335 332 329 329 330 332 333 333 335 335 335 335 335 336 336 336 336 336 334 333 335 338 338 338 338 337 337 337 337 337 337 337 334
334 334 333 333 333 332 332 333 333 333 331 331 332 333 333 334 334 335 335 335 335 334 333 333 334 335 336 336 335 336 336 334 331 332 334 335 336 336 337 337 336 335 333 333 333 335 336 336 337 337 337 338 337 335 330 328 328 330 331 332 333 334 335 335 335 336 336 335 333 333 334 334 336 337 337 338 337 337 337 336 337 337 337 336 333
334 333 333 333 332 332 331 331 332 332 330 328 330 330 330 332 333 333 334 335 336 336 334 333 333 333 333 334 335 336 337 335 330 333 335 336 338 337 337 337 336 335 333 333 333 332 333 335 335 336 337 336 336 336 333 330 329 329 331 331 333 334 335 334 335 335 336 336 333 330 332 334 336 337 337 338 337 337 337 337 337 337 336 336 333
332 331 331 331 331 332 331 329 329 329 329 328 328 328 328 330 333 332 332 333 334 335 334 334 333 333 332 332 333 334 337 336 333 335 336 336 337 337 336 336 335 335 334 334 335 333 333 334 334 335 337 336 334 334 334 333 332 331 332 333 334 335 335 335 335 335 335 336 334 330 330 335 336 337 338 338 336 337 337 337 338 337 336 335 332
329 328 328 328 328 329 329 328 327 327 328 328 327 327 326 328 332 332 331 331 332 333 333 334 333 334 332 331 331 331 335 337 335 336 336 336 335 335 336 335 334 335 336 335 335 333 333 333 333 333 335 335 334 333 334 334 334 333 333 334 334 335 336 336 335 335 336 335 335 331 329 334 337 337 338 337 337 338 337 337 337 336 335 335 332
326 325 325 325 325 325 327 327 326 326 326 326 326 325 325 326 329 330 330 330 331 332 332 333 333 333 333 332 331 330 332 335 335 336 336 335 333 334 336 334 335 336 336 335 335 334 334 333 332 331 333 335 334 332 334 335 335 334 333 333 333 334 335 336 335 335 335 335 335 331 329 334 336 337 338 338 337 337 337 337 337 337 336 334 332
324 324 324 324 324 324 325 325 325 324 324 324 324 324 325 326 327 327 328 329 331 332 331 332 332 332 332 333 333 332 332 334 335 336 336 335 333 334 336 333 334 336 335 335 335 336 335 333 332 332 331 333 332 331 333 334 335 335 334 333 333 333 333 334 334 335 335 335 335 332 330 333 335 337 338 338 336 336 337 336 337 336 336 335 332
323 322 323 323 323 323 324 324 323 322 322 322 323 324 326 327 327 326 325 327 330 330 331 332 332 331 331 332 333 334 334 335 336 336 335 335 333 334 334 333 334 335 334 334 335 336 335 334 333 334 333 331 330 329 331 333 334 334 334 333 333 333 333 333 334 335 335 335 335 333 330 331 335 337 338 337 335 336 336 335 336 336 336 335 332
322 321 322 322 323 322 321 321 319 319 320 322 323 324 326 327 327 326 324 325 328 329 331 332 331 330 330 331 332 334 335 335 336 335 335 334 333 333 333 333 334 334 334 334 335 334 335 334 334 335 335 333 331 330 329 330 332 333 333 333 333 333 333 333 333 334 335 335 335 334 331 330 335 337 337 337 336 336 336 335 334 335 335 334 333
321 320 321 321 320 318 317 316 316 319 321 323 324 324 324 325 324 324 325 326 328 329 331 331 329 330 331 330 332 332 333 334 335 335 335 334 334 333 333 332 333 333 333 333 334 334 334 334 335 335 335 335 335 334 331 329 329 331 333 333 332 332 333 333 333 334 335 335 334 335 331 330 333 336 337 336 336 336 336 335 335 335 334 334 334
320 320 320 319 317 315 314 314 315 318 320 321 320 320 320 321 322 322 324 326 327 327 329 328 328 331 331 330 330 330 331 332 333 334 334 334 334 333 333 332 333 333 333 333 333 333 333 334 335 335 335 335 336 336 335 332 329 329 330 333 334 333 333 333 333 333 335 335 334 335 332 330 333 335 336 336 336 336 336 336 335 335 333 334 335
319 319 319 318 316 315 314 314 315 315 316 317 316 317 318 318 319 321 323 325 326 326 326 327 328 330 330 330 330 329 330 331 331 332 333 334 334 334 334 333 334 334 334 334 334 334 333 333 333 334 335 336 336 336 336 335 333 330 330 332 333 333 333 333 333 333 335 335 334 335 333 331 332 334 336 336 335 335 336 335 335 335 334 335 335
319 319 318 317 317 316 315 314 315 314 315 316 316 318 318 317 318 320 322 323 324 326 327 328 329 330 330 329 329 329 329 329 330 330 332 332 333 334 334 335 335 335 335 335 335 334 334 333 332 333 334 335 335 335 335 336 335 334 333 333 333 333 333 333 333 333 334 335 334 334 334 332 332 333 334 335 335 335 335 335 336 336 335 335 335
319 319 317 317 317 316 315 316 315 314 315 316 317 319 319 318 318 319 321 322 323 325 327 327 328 328 327 327 327 328 329 329 329 330 330 331 332 333 334 335 335 335 335 335 335 335 334 334 333 333 333 334 334 334 334 334 334 334 334 334 334 334 334 333 334 334 334 336 335 334 334 333 332 332 333 334 334 335 335 336 335 335 335 335 335
318 318 317 317 317 317 316 316 315 313 315 315 316 319 318 317 318 319 321 322 323 324 325 325 325 325 325 325 326 327 327 327 328 329 329 330 331 332 333 334 335 335 335 335 336 335 335 335 334 334 334 334 334 334 334 334 333 334 334 334 334 334 334 335 335 335 335 336 335 334 334 334 333 332 332 333 334 334 335 335 335 335 335 334 334
318 318 318 317 317 317 317 317 314 312 313 314 316 318 318 317 317 318 320 321 322 323 323 323 323 324 324 324 324 325 326 326 327 327 327 328 329 330 331 332 333 334 334 335 335 335 335 335 334 334 335 335 334 334 334 334 334 333 334 334 334 334 335 335 336 335 335 336 334 334 334 334 333 332 331 333 334 334 334 335 334 335 335 334 334
317 318 318 317 318 319 319 316 313 311 312 312 314 317 317 317 317 317 318 319 320 321 321 321 321 322 322 323 323 323 324 324 325 325 326 327 327 328 329 330 332 332 334 334 334 335 335 335 335 335 335 335 334 334 334 334 334 334 334 334 334 335 335 336 336 336 336 334 333 334 334 333 333 332 331 332 333 334 334 334 333 334 334 334 334
317 318 319 318 320 321 319 316 313 311 312 312 313 315 316 317 317 316 316 316 316 317 318 318 318 319 320 320 321 321 322 322 323 324 325 325 325 326 327 328 330 331 332 334 334 334 335 335 335 335 335 335 334 334 334 334 334 333 334 335 335 335 335 335 335 335 336 335 334 334 334 333 332 332 331 331 332 333 334 334 333 334 335 334 334
320 318 318 319 320 321 320 316 313 311 311 313 313 315 316 316 315 315 314 314 314 314 315 315 316 317 318 318 319 320 320 321 321 322 322 323 324 325 326 327 328 329 331 332 333 333 334 334 334 334 334 334 333 333 333 334 334 334 335 335 335 335 334 335 335 334 335 336 336 335 335 333 331 331 330 329 331 333 334 334 334 335 335 334 333
322 320 317 317 320 321 320 316 313 312 312 313 313 315 315 315 314 313 313 313 313 313 314 314 315 316 316 317 317 318 319 320 320 320 321 322 323 324 325 326 328 329 329 331 332 333 333 333 333 333 333 333 333 332 333 333 333 333 335 336 335 334 334 333 333 333 334 335 335 336 335 333 332 331 330 329 329 331 333 334 334 334 334 334 334
324 321 317 316 319 320 319 317 313 312 312 313 313 314 315 314 313 313 313 313 313 313 313 313 314 315 315 315 316 317 318 319 319 319 320 321 324 324 325 327 328 329 328 330 331 332 333 332 332 332 332 332 332 332 332 333 333 332 334 335 335 335 335 335 334 333 333 334 334 336 336 334 333 331 330 329 328 329 331 332 333 333 334 334 334
325 320 316 316 319 320 319 317 316 313 312 313 313 313 314 314 314 314 314 314 314 313 313 313 314 315 315 315 315 315 316 317 318 318 318 320 323 323 324 325 327 327 329 330 330 331 331 332 332 332 331 331 331 332 332 332 333 332 333 335 336 336 336 336 336 334 333 333 334 335 336 335 334 332 330 328 328 327 328 331 332 333 334 334 333
324 319 316 317 318 318 317 317 317 315 313 313 313 313 313 314 314 314 314 314 313 313 313 314 315 315 315 315 315 315 316 316 317 317 317 319 322 322 321 322 322 324 326 327 328 328 328 330 332 332 331 331 331 331 331 332 333 332 333 333 334 335 335 336 337 336 334 334 334 335 336 336 335 334 332 330 328 326 327 329 331 332 333 333 332
322 319 319 319 319 318 316 315 316 317 316 314 313 313 313 313 314 314 314 314 314 313 313 314 315 315 315 315 315 316 317 316 316 317 317 318 321 322 321 321 321 321 322 323 324 325 326 328 329 331 331 331 331 331 331 332 333 333 332 333 334 334 334 334 336 336 336 335 335 336 336 336 336 335 334 332 329 327 327 328 330 332 333 333 332
320 320 322 322 322 321 319 318 318 319 318 317 315 313 314 313 314 314 314 314 314 313 312 313 315 315 315 316 316 317 318 318 316 316 317 318 321 323 322 321 321 321 321 322 323 323 325 326 328 329 330 330 330 331 331 332 332 332 333 333 333 333 333 333 334 335 336 337 336 336 336 337 337 336 336 334 331 329 328 327 329 330 332 333 333
320 321 323 323 323 323 322 322 321 320 320 319 317 314 314 314 314 314 314 314 314 313 312 313 314 315 315 316 317 318 318 318 318 317 318 318 321 323 322 321 321 322 322 322 324 324 325 326 327 329 329 330 329 329 330 331 331 331 332 333 333 334 333 333 334 334 334 336 337 336 336 337 337 337 336 335 333 331 329 328 328 329 330 332 332
322 322 324 324 323 322 322 323 322 321 320 319 318 316 315 315 314 314 314 314 314 314 313 313 314 314 315 316 317 319 319 318 318 318 317 320 323 323 322 322 322 322 322 323 324 325 326 327 328 329 330 330 329 328 330 331 331 331 331 333 334 335 336 333 332 333 333 334 335 336 336 337 337 337 336 336 335 333 332 330 329 329 330 330 331
324 324 324 324 322 320 321 323 322 322 321 320 319 318 316 316 315 315 315 315 314 314 313 312 313 313 314 317 318 318 319 318 318 318 317 319 322 321 321 322 322 322 323 323 323 324 326 327 328 329 329 330 330 330 330 330 331 331 332 333 331 333 339 334 329 331 332 333 335 335 336 337 336 336 336 336 336 335 334 332 331 329 329 330 330
324 325 325 324 322 320 322 324 323 322 322 321 320 319 318 317 316 316 316 316 315 314 314 312 312 313 313 316 317 316 317 318 318 318 318 318 320 321 321 321 322 322 322 323 322 323 326 327 326 327 329 330 330 330 330 330 331 331 331 332 331 334 338 332 328 331 332 332 334 334 335 336 335 335 336 336 336 337 335 333 333 332 330 330 329
324 325 325 324 323 321 322 324 323 323 322 321 320 319 318 318 317 317 316 316 315 314 314 313 312 313 313 315 317 316 317 318 318 318 318 318 319 321 322 321 321 322 321 322 322 322 324 325 323 324 327 329 330 330 330 329 329 330 331 331 332 333 334 331 330 332 332 332 333 333 334 335 335 334 335 336 336 336 335 334 334 334 332 330 330
324 324 325 325 324 322 323 323 323 323 323 321 320 320 319 319 318 318 317 317 316 315 314 313 312 313 313 314 315 315 317 318 319 319 319 319 319 321 322 321 321 321 321 322 322 322 323 323 322 322 323 326 329 329 329 329 328 329 330 330 331 331 332 332 332 332 333 333 332 332 334 334 334 334 334 335 334 335 334 334 334 334 333 333 332
324 324 325 324 324 323 323 322 322 322 323 322 321 320 320 320 319 319 318 318 317 315 315 314 313 312 313 314 315 316 316 317 318 318 318 319 320 321 321 320 320 321 321 321 321 322 322 322 321 320 321 322 326 329 329 329 329 329 330 329 330 330 330 331 331 331 334 334 332 331 332 333 333 334 334 334 334 334 333 333 334 334 334 334 334
324 324 324 324 324 324 323 322 322 323 323 322 321 320 320 320 319 319 318 318 317 316 315 315 313 312 312 314 315 316 316 316 317 318 318 319 319 319 319 319 320 320 320 319 319 321 321 321 320 320 320 320 323 326 327 328 329 329 329 329 329 329 329 330 331 331 332 333 334 332 330 331 332 333 333 334 334 334 333 333 333 333 334 334 334
323 323 323 323 324 323 323 322 323 324 323 323 322 320 320 320 320 320 319 319 318 316 315 315 314 312 312 313 314 315 316 316 317 318 319 319 319 319 318 318 318 318 318 317 317 318 319 321 321 321 320 320 321 323 325 326 327 328 329 329 329 329 329 329 330 331 331 332 333 332 330 331 332 331 331 332 333 333 334 334 334 333 334 334 334
322 322 322 323 323 323 323 323 323 324 323 323 323 320 320 321 320 320 320 319 318 316 315 315 314 313 312 312 313 314 315 316 317 318 319 319 318 318 318 317 317 316 316 316 316 316 316 319 321 321 320 320 320 322 323 323 325 325 326 328 328 329 329 329 329 329 330 331 331 332 331 331 331 330 330 331 331 332 333 334 334 334 334 334 335
Wind_Speed
1 2 1 3 4 4 6 8 8 9 9 12 11 11 12 13 14 14 13 13 13 12 11 11 10 9 7 7 6 6 7 7 7 7 6 5 5 4 4 4 4 4 4 4 4 5 5 7 9 10 11 11 11 10 10 10 11 12 13 13 13 14 15 15 15 15 15 15 15 15 15 15 15 15 16 16 16 16 16 16 16 17 17 17 17
4 5 3 4 5 6 9 9 9 8 8 11 12 11 12 13 14 14 14 14 13 12 12 11 10 9 8 7 6 6 6 6 6 5 5 5 5 4 5 5 4 4 4 4 5 6 6 8 9 10 12 12 12 12 11 11 11 12 13 13 13 13 14 14 14 14 14 14 14 14 14 13 13 14 14 14 14 15 15 15 15 16 17 16 16
6 6 5 5 6 8 10 10 8 8 9 12 12 11 12 14 15 15 15 15 13 12 11 11 10 9 8 7 6 6 5 5 5 5 5 5 5 4 5 5 4 4 4 4 5 7 7 8 9 10 12 13 13 13 12 12 12 12 13 13 13 13 13 13 12 12 12 12 13 12 12 12 12 13 13 13 13 13 13 14 14 16 16 15 16
6 5 5 6 7 8 10 10 8 9 11 12 12 12 13 15 16 16 15 15 14 13 11 10 9 8 7 6 6 6 5 4 4 4 4 5 5 5 4 5 5 4 4 5 5 7 8 9 10 11 13 14 14 14 13 13 13 12 13 13 13 12 12 12 11 11 10 10 11 11 12 12 11 11 12 12 12 12 13 13 14 14 15 15 16
6 4 6 7 8 9 11 11 10 11 12 12 12 12 14 15 16 15 14 14 14 13 12 10 8 7 6 5 5 5 5 4 4 4 4 5 5 5 4 5 5 4 4 5 6 7 8 10 11 12 13 14 15 15 15 14 14 14 13 13 12 12 11 10 10 9 8 8 10 11 12 12 12 11 11 11 11 11 12 13 13 14 14 15 15
7 6 8 9 10 11 12 13 11 11 12 12 12 12 13 14 14 14 13 13 13 12 11 9 7 6 5 4 4 3 3 3 3 4 4 5 5 5 5 5 6 5 4 5 6 7 8 10 12 12 14 15 15 16 15 15 15 14 13 12 12 12 11 9 8 7 7 8 10 11 12 12 12 11 10 10 10 11 12 12 12 13 15 15 15
8 9 10 11 12 12 14 13 11 10 10 11 11 11 13 13 14 14 13 13 12 10 10 8 6 5 4 3 3 2 2 1 1 2 4 4 4 5 5 5 5 5 4 5 6 7 8 9 11 12 14 14 15 16 15 15 15 13 12 12 11 11 10 8 6 6 7 8 10 11 12 12 11 10 9 9 10 10 11 11 12 13 15 16 15
10 13 13 13 13 12 14 12 9 9 9 10 10 11 13 13 14 13 12 11 10 10 9 8 6 5 4 4 4 3 3 2 1 1 3 4 4 5 4 4 4 5 4 5 5 6 7 8 10 11 12 14 15 15 15 15 14 13 12 11 11 10 9 8 6 6 7 8 9 11 11 11 10 10 9 9 9 9 10 10 11 13 14 15 15
12 14 14 13 12 12 12 9 8 8 9 10 10 12 13 13 13 12 11 10 9 8 8 7 7 6 6 5 5 4 4 3 1 1 2 3 4 4 4 4 4 4 4 4 5 6 6 7 9 9 11 13 15 15 15 15 14 12 11 11 9 8 8 7 6 5 6 7 9 10 10 10 9 9 8 8 9 9 9 10 11 13 14 14 15
12 13 14 12 11 10 10 9 8 8 9 10 11 12 12 12 11 10 9 8 8 7 7 7 6 6 6 6 6 5 5 4 2 2 2 2 2 4 5 4 3 4 4 5 7 6 7 7 7 8 9 12 14 14 15 15 13 11 10 9 8 6 6 6 6 5 5 7 8 10 10 9 9 9 8 8 9 9 10 10 11 13 14 14 14
11 12 13 12 11 9 9 9 8 9 10 10 11 11 10 10 10 9 8 7 7 6 6 6 6 6 6 6 6 5 5 5 4 4 3 2 2 2 4 4 3 4 3 5 8 7 7 7 7 8 8 11 13 13 14 14 12 10 8 8 7 5 5 5 6 5 4 6 8 9 8 8 9 8 8 8 8 9 10 10 11 13 13 13 14
10 11 14 14 14 12 12 10 9 9 9 10 11 10 10 10 9 9 7 6 6 6 6 6 6 6 6 6 6 5 5 5 4 4 3 2 2 2 3 3 3 3 3 4 6 7 7 7 7 8 8 9 11 12 12 12 11 9 7 7 7 6 6 6 6 6 5 6 8 9 8 8 8 8 8 8 8 9 9 10 11 12 13 13 14
11 12 14 15 14 13 13 12 11 10 10 10 10 11 11 10 9 9 8 7 6 6 6 6 6 6 7 7 7 6 6 5 4 4 4 4 2 1 1 1 3 3 3 3 4 6 7 7 7 8 7 8 9 11 11 12 11 8 7 8 8 7 7 7 6 6 5 6 8 9 8 8 8 8 8 8 8 8 9 10 12 12 13 13 14
13 12 13 12 12 11 11 11 10 10 10 9 10 9 10 10 9 8 8 8 7 7 6 6 6 6 7 7 8 8 8 6 5 6 6 7 6 4 3 2 2 3 3 3 2 4 6 6 7 7 7 7 9 10 11 11 11 8 7 8 8 8 8 7 6 5 5 6 7 7 7 8 8 7 8 8 8 7 8 10 12 12 12 13 14
14 12 11 10 10 9 9 10 9 9 9 9 9 9 9 9 9 9 9 8 8 7 6 6 5 5 6 7 8 8 8 8 7 8 7 6 4 1 2 2 2 2 1 2 3 2 4 6 5 6 6 7 8 9 11 11 10 8 7 7 7 8 7 6 5 4 4 5 6 7 7 8 9 7 7 8 8 8 8 10 11 12 12 13 14
11 10 9 8 8 9 9 9 9 9 8 9 9 9 9 9 9 9 9 8 7 6 6 6 5 6 5 6 7 7 9 9 9 8 5 3 2 1 3 4 5 5 3 2 4 3 2 4 4 5 5 6 8 9 11 11 9 7 7 7 6 7 7 6 4 3 3 4 6 7 8 9 8 7 6 7 8 9 9 11 11 12 13 13 13
9 8 8 8 8 9 9 9 8 9 9 9 9 9 9 8 9 8 8 8 8 7 7 7 7 7 6 7 7 7 9 10 9 5 1 3 4 2 3 4 4 5 4 4 4 5 3 2 3 4 5 5 6 8 10 10 9 7 7 6 6 6 7 6 5 3 1 2 4 6 7 9 8 7 7 7 9 9 10 11 11 12 14 14 13
8 8 8 8 9 9 9 8 8 8 9 9 9 9 8 8 8 7 7 7 7 7 7 8 8 8 8 9 9 8 9 9 6 4 2 4 4 3 3 5 5 4 3 3 2 2 3 3 4 4 4 6 5 6 8 8 8 7 6 5 5 5 7 7 6 4 2 2 3 5 6 8 8 7 7 8 10 11 10 11 12 14 15 14 13
9 8 8 8 8 8 9 9 8 8 8 9 9 9 9 9 8 8 8 7 7 7 8 7 7 7 8 9 11 9 8 7 5 5 3 4 5 6 5 6 7 4 1 2 3 2 2 3 3 4 5 5 5 5 7 7 7 7 6 5 4 4 6 8 8 6 4 2 3 4 4 6 7 6 6 7 9 11 10 12 14 15 15 14 13
8 7 7 7 7 7 8 9 9 9 9 10 10 10 11 10 9 8 9 8 7 8 8 8 7 7 7 8 9 9 7 5 5 5 5 6 8 8 7 7 4 3 2 2 3 4 3 2 2 3 5 4 3 3 5 6 7 6 6 5 4 4 5 7 8 7 5 3 3 3 3 5 7 5 5 7 10 12 11 13 14 15 15 14 12
8 7 8 7 6 7 8 9 10 11 10 11 11 12 12 10 9 8 8 9 8 9 9 9 8 7 7 7 7 7 6 4 4 5 5 7 7 7 7 6 3 4 5 3 1 4 4 2 1 2 1 2 2 1 3 4 5 6 6 5 5 5 4 5 6 6 5 4 3 3 3 6 6 6 6 7 10 13 13 14 15 15 14 13 12
9 8 9 8 8 9 10 10 11 11 11 11 12 12 12 10 9 9 8 9 9 8 9 9 9 8 7 6 6 6 5 4 4 5 6 7 6 6 6 5 5 6 6 5 3 2 2 3 3 4 4 3 3 2 2 3 4 5 6 6 6 5 5 5 6 6 5 5 4 4 4 6 6 6 6 6 9 13 15 15 15 16 15 13 13
10 10 10 10 10 11 11 11 11 11 11 11 12 12 12 11 11 11 10 8 8 7 8 9 9 9 8 7 6 5 5 5 5 5 6 6 5 5 5 5 6 7 6 5 4 3 1 1 2 2 3 4 4 4 4 4 4 5 6 6 6 6 6 6 6 8 7 6 6 5 5 6 6 6 6 5 8 13 15 16 16 16 15 14 13
11 11 11 12 12 12 12 12 11 11 11 12 13 13 13 12 12 13 12 9 7 7 8 8 8 9 9 8 6 6 5 5 5 5 6 5 4 4 3 4 5 5 5 5 4 4 2 1 1 2 3 3 5 5 6 7 7 6 5 5 6 6 6 6 7 9 9 8 7 7 6 7 7 7 6 5 8 13 16 17 17 16 16 15 13
11 11 13 13 13 13 13 12 12 13 13 14 15 14 13 13 13 14 13 11 8 7 7 7 8 9 10 9 8 7 6 6 6 6 5 5 4 4 3 3 3 4 4 5 5 5 4 3 3 3 3 3 4 5 6 8 9 9 7 6 6 6 6 6 7 9 10 9 8 7 7 6 8 7 6 5 8 13 16 17 17 16 16 15 13
11 13 14 14 14 15 15 15 15 15 15 15 14 13 13 13 13 14 13 11 8 7 7 7 8 8 9 10 10 9 7 6 6 6 6 5 4 4 4 3 3 3 3 4 5 6 6 5 4 5 5 4 5 5 6 7 9 11 10 9 8 7 7 6 6 9 11 10 8 8 7 6 7 8 6 6 9 13 15 17 18 18 16 15 14
13 14 14 15 16 17 17 17 17 17 16 15 14 14 13 12 12 12 13 12 9 9 9 8 8 7 8 10 10 10 9 8 7 6 6 6 5 4 3 2 2 2 2 2 3 5 6 6 6 6 6 5 5 6 7 7 9 11 11 11 9 9 8 8 7 8 11 10 8 8 8 7 8 8 7 7 8 12 16 18 19 19 18 18 16
14 15 14 15 16 16 16 17 17 18 17 16 16 16 15 14 12 11 12 12 11 11 10 9 8 7 8 9 10 10 10 9 8 7 7 6 6 5 4 2 1 1 2 2 2 3 4 6 7 7 6 6 7 7 7 8 9 11 12 11 11 11 10 10 8 8 11 11 9 8 8 8 8 9 9 8 8 12 17 18 18 19 19 19 17
14 15 14 15 15 14 15 16 17 18 17 17 18 17 16 16 14 12 12 12 13 12 11 10 9 8 9 9 9 9 9 9 9 8 8 7 7 6 5 3 2 2 2 2 2 2 3 5 6 7 7 7 7 7 7 8 10 11 12 12 12 13 11 10 10 10 12 12 10 8 9 9 9 10 10 9 8 11 17 18 18 18 18 18 16
13 13 13 14 13 13 14 15 17 17 16 17 18 16 16 17 16 14 12 12 13 12 11 11 10 9 9 9 9 9 9 9 9 9 8 8 8 7 5 4 3 3 3 3 2 3 4 4 5 6 6 7 7 8 9 10 11 12 12 12 12 12 10 9 10 10 12 13 12 9 10 10 10 11 10 10 8 9 16 18 18 18 17 18 17
11 11 12 13 13 13 14 14 16 16 15 17 17 16 16 17 17 16 14 13 12 11 11 11 10 9 10 9 9 8 8 8 9 9 8 8 8 8 7 5 4 3 3 3 3 4 4 5 5 6 5 6 7 8 9 9 10 12 12 12 11 10 9 9 9 11 13 13 12 10 11 11 11 12 11 10 8 8 15 18 17 17 17 17 16
9 10 11 11 12 12 12 14 15 15 15 16 16 16 16 17 17 18 17 14 12 11 11 11 10 9 9 9 9 8 7 7 7 8 8 7 7 7 7 6 5 4 4 3 4 5 6 5 5 5 6 6 7 7 7 7 9 10 11 11 10 9 8 9 9 11 12 12 12 11 12 12 12 12 11 10 9 8 12 16 17 17 16 16 16
8 8 9 9 10 10 10 13 15 15 15 16 16 16 16 16 18 18 18 16 14 12 12 11 11 10 9 9 8 8 8 7 7 7 7 6 7 7 7 7 6 5 5 4 5 6 7 6 5 5 6 5 6 6 6 7 7 7 8 9 10 9 8 9 10 12 12 12 12 12 13 14 13 13 12 11 10 9 10 12 16 17 15 16 18
6 6 7 7 8 8 9 13 15 14 15 16 16 16 15 16 17 17 17 17 16 15 13 13 12 11 10 9 8 8 8 8 7 7 7 6 6 6 6 7 6 6 5 5 5 6 7 8 7 7 6 4 4 4 5 6 6 6 6 7 9 9 9 9 10 11 12 13 12 12 13 15 15 14 13 12 11 10 10 10 14 17 15 15 17
4 4 5 6 7 7 9 12 13 14 15 16 16 15 14 15 16 17 18 18 18 17 16 15 13 12 11 10 9 8 8 8 7 8 9 8 7 6 5 5 5 6 6 5 5 6 7 8 8 8 6 5 5 5 5 5 5 6 5 6 8 8 8 9 10 11 11 12 12 12 13 16 16 15 14 13 13 12 10 10 11 13 14 15 15
3 2 2 4 5 6 8 10 11 13 14 15 15 13 13 13 15 16 17 17 18 18 18 16 13 12 11 10 9 8 8 8 8 8 9 7 6 5 5 4 4 5 6 5 5 6 7 7 6 7 7 7 7 6 6 6 5 6 6 6 6 7 7 8 9 10 10 10 11 12 14 16 16 16 15 14 14 13 12 11 11 12 14 15 13
3 1 1 2 3 4 6 8 10 11 12 13 13 12 11 11 12 13 14 16 18 19 19 16 14 12 11 11 10 9 8 8 8 8 8 7 5 3 4 4 3 4 6 6 6 7 8 8 8 6 7 8 7 5 5 5 6 7 7 7 7 8 7 7 8 10 10 10 11 13 15 16 16 16 16 15 14 14 13 12 12 12 13 14 13
3 1 2 3 2 3 5 6 7 7 9 10 11 10 9 9 10 11 13 15 18 19 19 17 14 12 11 11 11 10 8 7 7 8 8 7 5 4 4 5 5 5 6 7 7 7 7 8 8 8 7 7 6 4 4 5 6 7 8 8 8 8 7 7 9 10 12 12 11 12 14 15 16 16 16 16 15 15 15 14 13 13 14 14 14
4 3 4 4 2 2 4 4 4 4 5 7 9 9 8 8 10 11 12 15 18 19 19 17 14 13 12 11 11 11 11 9 7 7 7 7 5 5 6 6 6 6 6 7 7 9 9 8 8 8 7 6 4 4 3 5 6 6 8 8 8 8 8 8 9 10 12 13 12 12 14 15 16 16 15 15 16 16 16 15 15 15 15 15 15
7 7 6 4 2 1 2 2 1 1 2 4 6 7 8 9 11 12 13 15 18 19 19 17 14 13 13 12 12 13 12 11 9 7 6 6 5 5 7 8 8 8 8 8 9 10 10 9 9 8 8 6 3 4 4 4 4 5 7 8 9 9 8 8 9 11 11 11 11 11 13 15 16 16 15 15 16 16 17 16 16 17 17 17 17
10 9 6 4 2 2 3 3 3 2 2 3 6 7 8 10 12 13 13 14 16 18 19 17 15 14 13 12 13 14 13 11 9 7 6 6 4 5 8 9 9 9 8 8 9 10 9 9 9 8 7 7 4 3 2 2 2 3 5 5 7 8 9 9 10 11 11 10 9 10 12 14 15 16 16 15 16 17 17 17 18 18 18 18 18
12 11 7 6 5 5 7 8 7 6 4 4 5 6 7 9 10 12 12 12 14 17 18 17 15 14 13 12 12 13 13 11 10 7 6 5 3 6 9 9 10 9 9 9 9 9 9 8 9 8 8 8 7 4 1 1 2 2 1 2 2 5 8 10 11 12 12 12 11 11 12 13 15 17 16 16 17 18 18 18 19 19 20 20 20
13 13 10 9 9 8 10 11 10 8 7 5 5 5 5 6 8 10 11 11 13 14 15 15 14 13 13 12 12 13 13 12 11 9 7 5 4 6 9 9 9 10 9 10 10 10 10 9 9 9 8 9 8 5 2 1 3 2 1 0 1 1 4 7 10 13 13 13 14 13 12 14 16 17 17 17 18 18 19 19 20 21 21 21 21
14 14 13 14 13 12 11 12 12 11 9 8 6 4 3 4 6 7 9 10 11 12 13 14 14 13 12 11 11 13 13 12 11 10 7 5 4 6 8 9 9 9 9 10 11 12 11 10 9 9 8 9 8 6 4 2 3 3 0 1 1 1 1 2 5 9 11 13 14 14 13 14 16 17 18 18 18 18 19 20 21 21 22 22 22
16 18 18 17 16 14 11 13 13 13 12 9 8 6 4 3 3 4 7 9 10 11 12 14 15 14 13 10 10 12 13 12 11 10 8 5 4 5 8 9 9 8 9 10 11 12 11 11 11 10 9 8 8 7 6 5 2 4 2 0 1 0 2 1 3 4 7 10 13 14 14 14 15 16 17 18 18 17 17 19 20 21 23 23 23
19 21 19 18 16 12 11 13 13 12 12 12 11 9 7 5 4 4 5 8 9 10 11 13 14 15 13 10 9 10 11 10 10 9 8 6 5 5 8 9 9 8 9 10 11 11 10 11 12 12 11 9 7 6 6 7 5 4 5 4 3 1 1 1 1 2 3 5 8 12 14 14 14 14 16 18 18 18 17 18 20 21 22 24 24
22 21 19 18 15 12 13 14 15 15 14 15 15 13 11 9 6 5 4 6 7 8 9 10 12 14 12 10 9 9 10 10 9 8 8 7 6 6 7 8 8 7 8 10 11 11 9 10 12 12 13 11 8 6 6 7 6 4 3 5 7 6 5 3 1 1 3 2 2 5 9 11 12 14 17 19 18 17 17 19 21 22 22 23 24
23 20 19 19 17 16 16 15 17 18 16 15 16 17 15 11 8 6 4 4 5 6 7 8 9 12 12 10 9 9 9 10 9 7 7 7 7 7 6 7 7 7 8 10 11 10 9 10 12 13 13 13 11 9 7 6 6 5 4 4 5 7 8 7 5 3 2 1 3 4 4 6 10 14 18 20 19 18 18 20 22 23 22 22 23
22 21 21 21 20 20 19 19 19 19 18 15 17 20 18 13 10 8 5 4 4 5 6 7 7 10 11 11 10 9 9 10 9 7 5 5 7 7 7 7 7 7 9 10 11 10 8 9 11 13 14 13 12 11 9 7 6 5 5 4 4 5 6 7 8 7 5 3 3 2 3 4 6 9 12 15 18 19 19 20 21 23 24 24 24
19 20 21 21 22 21 21 24 24 23 22 19 20 23 20 15 13 11 7 5 3 3 5 6 6 8 10 11 11 10 10 12 11 7 4 4 5 6 6 6 7 8 9 10 11 11 10 10 10 11 13 13 12 12 11 10 8 6 6 5 4 4 4 4 4 6 6 5 4 4 3 4 5 8 10 11 15 17 18 19 21 23 25 26 26
20 20 21 22 24 24 24 27 28 27 27 25 25 25 21 16 15 13 10 6 4 3 4 5 5 6 8 10 11 12 11 13 12 7 4 4 5 5 5 5 7 9 10 11 12 13 12 10 9 9 11 12 11 11 11 11 10 8 7 7 6 5 4 4 5 6 6 5 4 4 4 6 8 11 12 11 11 12 14 18 21 23 25 26 26
Wind_Direction
326 344 33 106 27 22 77 76 78 67 76 87 86 87 87 85 82 79 76 74 73 73 72 71 71 76 82 90 103 121 130 130 127 125 123 124 121 120 115 111 113 110 117 125 124 133 135 123 121 122 120 118 118 116 113 113 112 110 107 102 98 98 98 98 99 99 101 102 103 104 104 105 106 107 107 106 105 106 108 111 114 113 110 109 108
16 29 58 77 48 64 83 74 75 73 74 78 78 76 74 70 69 68 67 67 66 69 70 69 67 68 72 79 86 99 113 117 117 118 121 123 124 122 119 120 117 117 124 129 125 128 126 119 126 128 123 121 118 116 115 119 119 113 109 106 100 98 100 100 99 99 102 104 104 104 105 105 106 107 107 107 106 109 112 115 117 114 111 112 110
38 56 81 75 78 91 89 74 70 76 74 71 68 62 63 63 63 61 59 57 56 60 69 72 69 67 71 74 82 91 99 105 110 112 115 118 122 121 122 121 114 117 123 122 125 128 125 121 129 128 122 121 117 115 119 125 122 112 108 107 101 99 99 100 99 100 102 104 109 108 108 109 107 109 110 110 110 111 113 115 116 114 114 116 115
49 74 102 91 97 95 84 77 67 68 70 67 65 60 61 62 61 60 56 54 50 50 58 68 68 69 76 81 91 98 101 106 115 117 118 120 121 122 121 120 116 112 116 119 121 126 127 126 127 124 121 118 114 113 117 125 123 113 109 108 105 103 101 100 100 102 105 110 118 118 117 115 111 114 116 114 112 113 115 117 116 117 119 121 119
46 94 108 91 89 85 80 75 63 62 64 63 62 58 58 59 59 58 54 52 50 48 51 62 66 66 72 83 94 98 102 110 121 123 123 125 123 123 119 118 115 101 102 114 118 123 125 126 124 122 121 119 117 114 116 122 122 116 113 111 111 108 103 102 106 108 111 122 126 124 124 120 117 118 118 116 115 116 118 120 120 123 124 124 122
55 105 100 79 79 82 80 73 64 60 58 57 56 55 57 58 59 57 53 52 51 50 51 59 63 62 60 68 85 93 104 110 121 128 124 122 123 120 114 107 106 100 99 101 109 120 119 119 123 124 123 122 121 121 123 122 119 115 112 109 108 107 101 97 106 117 124 133 132 130 129 126 125 124 121 120 119 120 120 124 126 128 129 126 124
71 90 86 74 76 78 76 71 64 59 56 56 56 56 57 56 54 51 50 49 48 47 48 50 52 54 45 41 51 58 74 63 100 136 128 118 111 104 101 100 101 103 100 98 103 113 114 113 118 123 124 123 123 126 126 121 117 113 110 107 107 106 101 93 92 113 133 139 139 136 134 133 133 129 126 125 121 123 126 131 134 134 132 129 127
73 77 77 76 79 79 75 71 63 56 54 54 55 54 52 51 48 45 43 42 41 39 41 42 40 37 31 23 18 20 27 23 27 135 135 122 110 100 96 98 104 106 104 104 98 103 110 112 114 118 121 122 123 124 122 119 115 110 106 105 107 108 105 100 87 102 137 147 145 142 138 139 138 132 129 127 126 129 132 137 140 137 132 129 128
70 75 81 80 81 81 79 76 65 55 52 51 52 52 49 47 44 42 39 36 36 33 34 35 31 28 28 24 19 20 19 21 41 60 102 115 116 119 111 102 103 103 102 103 91 93 102 102 106 111 117 121 121 120 118 116 113 110 107 106 110 114 112 109 96 101 141 154 150 148 144 143 139 133 132 131 132 136 140 144 139 132 130 130 129
73 81 90 89 85 81 81 80 70 60 56 52 50 49 47 46 43 39 35 34 34 31 30 29 29 25 24 24 20 21 18 16 38 51 66 99 136 147 132 118 116 111 112 117 104 101 103 98 100 107 116 120 121 119 117 115 113 111 108 106 107 117 124 120 111 106 140 160 158 153 149 148 142 137 140 140 141 144 150 150 139 131 132 131 128
81 87 94 93 93 87 83 78 70 63 58 55 51 49 47 46 43 37 34 32 34 32 29 25 23 19 15 15 11 12 12 11 25 41 59 103 158 168 146 136 124 115 117 122 113 106 104 105 108 110 119 125 125 123 119 116 114 112 108 103 99 111 135 130 121 115 134 162 166 159 153 153 147 143 147 147 148 152 153 150 143 134 132 129 126
84 88 92 91 94 94 92 88 84 78 69 66 59 57 54 50 45 37 33 31 34 31 27 22 14 10 6 4 1 1 5 7 11 23 50 85 165 188 165 151 117 99 82 95 110 107 106 113 117 118 125 132 132 128 124 121 118 119 113 101 98 104 123 126 122 126 137 160 171 166 159 159 153 149 155 154 151 152 150 151 148 139 136 133 130
87 86 89 87 89 89 87 85 84 83 78 73 67 65 60 54 48 40 40 39 38 29 21 15 6 1 355 355 355 352 356 3 8 11 27 34 25 50 50 87 88 65 40 62 105 111 107 111 115 119 128 135 138 135 131 129 125 124 114 98 98 102 108 115 118 131 148 162 171 169 163 162 157 157 164 161 154 152 151 154 148 141 142 139 135
94 87 84 82 80 79 76 76 76 77 75 69 65 65 59 52 47 44 44 46 44 33 20 10 359 353 348 348 349 348 350 356 18 21 25 27 19 31 23 12 81 67 28 25 73 113 105 101 109 113 124 136 142 145 140 135 131 127 113 98 102 108 106 110 117 133 157 165 167 168 167 162 164 170 173 168 162 158 156 153 144 142 145 141 139
94 88 84 79 77 75 74 75 73 71 67 64 63 60 56 51 47 44 44 46 44 35 22 13 2 354 350 349 346 346 348 353 19 25 31 39 15 31 57 44 61 62 58 23 28 94 106 97 100 108 121 134 141 148 146 138 134 130 117 105 112 120 116 117 122 132 159 170 169 172 174 170 174 183 181 172 165 164 161 153 145 147 148 143 141
91 90 87 83 77 73 73 74 72 69 63 63 64 62 60 54 47 41 42 42 38 31 20 15 9 6 359 354 346 345 356 8 23 21 31 41 358 51 56 48 45 30 27 37 17 352 62 93 81 94 108 123 138 145 146 139 136 137 126 117 122 132 135 137 132 131 157 175 178 180 182 181 185 190 190 181 168 169 167 156 152 153 151 148 143
92 92 89 81 73 68 69 72 73 71 67 66 64 65 62 58 51 38 38 37 31 29 20 13 4 4 4 2 357 352 7 22 23 8 358 348 346 48 62 56 57 38 32 37 18 347 342 19 42 56 73 93 125 137 139 140 142 148 139 128 123 134 145 151 146 139 168 202 199 192 189 192 195 195 196 192 173 172 171 156 155 157 153 150 144
95 93 87 79 72 66 63 65 69 69 67 65 63 62 55 53 54 43 37 31 25 22 15 15 3 359 2 2 1 360 16 26 9 335 351 358 350 16 48 56 43 32 50 47 21 349 342 345 15 23 39 68 91 124 136 144 154 162 157 145 132 134 142 150 150 149 184 246 239 213 200 200 201 203 202 199 178 170 169 158 161 161 156 152 146
97 93 86 78 70 63 58 57 61 63 60 56 54 50 45 42 44 40 33 26 19 9 5 12 6 1 358 355 356 4 21 21 347 324 355 22 17 15 23 46 30 6 64 74 47 57 28 0 9 358 6 50 73 111 138 153 165 170 169 164 153 147 147 152 154 156 176 226 253 235 212 195 200 215 201 195 184 172 168 165 169 164 156 152 146
98 89 77 68 60 57 55 55 57 58 55 52 47 39 38 38 36 31 26 21 13 7 7 10 10 7 3 3 2 8 17 6 342 336 2 24 20 19 22 42 28 332 338 49 75 91 81 38 22 346 352 16 49 98 132 155 165 167 168 172 173 176 167 164 164 163 174 199 237 242 220 190 198 214 186 180 181 173 167 169 172 165 155 150 146
86 75 66 58 56 57 57 56 54 53 50 47 43 36 34 34 34 26 20 16 12 9 8 11 15 15 12 17 17 15 15 2 352 346 9 25 17 22 25 32 24 327 340 345 60 109 113 108 145 221 292 337 331 95 132 151 156 161 168 177 183 191 194 188 183 177 182 203 219 221 206 189 194 202 187 185 180 170 167 171 170 163 156 151 149
75 67 62 57 54 56 57 53 50 46 42 40 38 37 33 31 32 28 23 17 13 9 4 8 14 19 17 16 19 21 19 7 4 356 14 22 3 22 31 18 21 8 349 339 349 51 101 138 179 214 217 237 264 251 209 170 159 165 175 188 193 197 201 202 207 203 202 212 221 216 194 186 196 198 188 192 189 177 171 170 168 162 157 154 155
70 62 57 54 51 52 54 51 48 42 36 37 36 35 33 32 32 29 26 19 14 11 5 6 11 18 22 20 19 18 14 6 9 11 27 29 356 12 30 7 19 24 3 351 348 340 344 159 187 243 238 239 253 251 241 224 204 193 188 197 206 212 212 211 220 221 218 218 216 208 194 190 194 196 185 193 200 183 174 172 168 163 159 160 162
68 62 58 55 54 53 53 50 47 42 39 40 40 39 37 35 33 29 24 19 14 9 7 10 15 22 27 30 29 22 14 5 6 10 26 37 8 0 16 10 20 25 11 2 353 334 315 285 313 317 290 268 260 251 245 240 235 231 215 214 221 227 232 233 230 225 223 222 209 194 196 192 182 190 189 192 197 181 177 174 168 166 163 163 165
71 66 61 58 56 54 51 49 47 47 47 44 42 41 38 34 32 28 24 23 19 16 24 32 30 29 31 34 36 32 22 10 6 5 15 23 10 356 357 9 16 17 6 354 347 335 316 305 317 303 292 289 274 260 249 244 245 247 239 232 234 235 240 247 240 229 224 218 204 189 194 192 176 186 188 174 185 181 179 175 170 171 166 165 167
74 68 64 64 63 60 56 55 54 52 49 44 40 37 33 30 28 28 30 33 34 37 47 49 40 35 33 33 35 35 31 25 15 8 12 11 5 357 349 353 354 357 355 343 337 329 321 313 305 283 278 287 282 269 255 249 248 250 248 242 238 236 238 251 251 232 222 213 203 192 190 193 178 185 189 177 184 183 178 175 176 175 169 170 173
77 72 73 76 72 66 62 59 58 56 52 46 39 36 32 29 26 28 35 41 43 44 46 43 37 35 36 36 34 32 33 34 28 17 13 8 3 356 346 342 340 337 329 327 328 324 314 295 283 274 271 271 271 267 258 251 247 248 251 248 241 240 240 251 260 236 221 211 204 195 184 192 187 184 191 185 184 183 182 181 179 176 173 176 177
81 79 82 82 74 67 62 59 58 55 51 45 42 41 37 34 32 30 37 41 42 43 41 38 36 39 40 40 36 33 33 32 30 26 17 11 5 355 349 342 329 318 298 284 294 306 296 280 271 266 261 258 261 264 261 253 250 250 250 251 249 249 247 245 252 239 221 210 205 198 185 193 194 188 191 185 180 185 187 184 181 180 179 178 176
82 81 83 81 74 67 62 58 55 50 45 41 42 43 40 37 37 35 36 37 40 46 46 45 47 48 44 39 37 35 36 31 27 25 19 15 10 2 355 347 334 304 275 264 257 256 269 274 268 260 253 252 256 259 259 253 252 252 251 253 254 254 251 240 243 239 220 209 206 199 188 196 199 194 193 185 182 193 191 184 184 185 182 180 176
86 82 83 82 76 69 63 58 53 47 40 38 41 44 41 37 38 38 36 35 43 50 51 52 53 52 49 42 35 34 35 32 28 24 19 15 15 14 7 356 342 318 293 270 259 250 252 263 266 260 255 251 252 254 256 253 252 254 253 252 253 253 246 233 236 231 215 208 206 200 192 196 201 199 197 190 185 198 194 186 188 188 186 186 180
96 90 89 87 81 71 63 58 54 47 39 39 43 45 41 40 41 41 40 41 45 47 46 49 48 47 45 39 35 35 31 28 28 24 19 16 12 14 13 9 353 327 309 286 271 269 261 257 258 254 255 252 249 253 258 260 257 256 255 250 250 248 235 227 227 218 212 209 204 202 197 196 204 203 201 195 184 190 194 191 191 190 191 191 182
105 97 96 95 86 75 64 57 52 47 41 41 45 44 43 44 45 44 45 45 43 40 38 38 37 36 32 28 28 29 25 25 24 13 9 11 8 5 4 4 356 336 314 292 277 281 280 275 267 252 252 256 255 259 267 269 262 255 254 248 242 237 226 226 223 212 211 208 201 203 201 198 205 205 203 198 189 186 193 196 196 193 192 191 188
113 100 99 101 90 77 66 57 52 48 44 45 46 45 46 46 46 44 42 40 38 35 30 25 22 21 18 16 14 14 15 17 13 358 350 355 358 356 353 354 353 341 324 305 288 287 291 297 302 282 272 275 271 270 272 271 261 248 244 237 231 229 228 229 222 214 212 207 202 204 204 204 208 206 201 199 196 192 191 199 204 201 196 192 195
126 110 105 107 95 80 68 58 53 51 49 51 51 49 47 45 42 40 35 31 29 26 22 14 7 6 6 5 5 7 5 2 2 353 340 336 336 340 344 346 346 344 339 323 309 300 299 306 311 307 298 286 280 276 271 271 255 238 234 231 227 226 231 230 221 216 215 212 210 207 206 208 210 208 203 198 200 199 194 199 205 203 199 197 201
153 128 112 109 98 80 67 60 55 55 56 56 55 53 47 43 39 37 34 28 23 19 15 9 1 357 358 358 358 0 357 355 356 346 333 326 320 319 327 333 339 343 344 342 335 325 316 314 311 308 298 268 269 273 266 265 251 240 242 237 232 226 228 229 221 218 218 215 216 213 210 211 212 212 209 200 199 203 200 200 201 199 198 199 202
180 155 109 103 92 72 65 60 56 56 59 60 59 57 49 46 45 42 37 28 20 14 9 6 0 355 355 358 357 356 353 348 347 341 335 330 318 314 318 322 328 331 335 345 352 351 344 339 329 311 293 278 276 268 254 250 244 241 239 235 237 230 226 228 221 219 220 216 217 216 213 213 213 216 216 208 202 203 202 204 204 199 199 201 200
206 260 39 79 79 65 65 63 58 56 58 62 64 62 56 54 52 46 36 26 19 13 9 8 4 359 357 357 358 356 350 343 340 341 347 346 336 341 349 343 341 335 334 340 348 356 356 355 354 334 300 288 278 259 246 245 246 245 236 230 236 234 229 233 231 226 223 220 219 217 214 214 215 217 220 217 211 207 205 206 209 206 205 205 203
212 245 60 72 75 58 62 61 56 49 52 60 63 63 61 58 53 44 35 26 20 15 12 11 9 3 359 356 355 352 346 341 339 339 348 353 355 11 15 10 5 359 350 345 349 355 357 356 355 351 326 296 268 235 232 250 255 249 238 233 238 240 237 236 239 235 228 227 227 222 218 216 216 220 222 222 220 216 212 209 211 213 212 212 211
199 166 120 100 89 50 44 52 52 42 40 50 58 61 60 56 51 43 37 29 21 18 14 13 10 2 359 358 355 352 346 337 333 340 353 356 1 18 20 16 8 1 353 344 346 352 357 357 351 350 346 319 263 233 254 269 261 251 242 237 240 245 242 235 236 238 237 238 236 229 224 220 218 221 225 227 227 224 222 217 215 218 219 220 219
191 168 144 127 107 24 17 30 27 43 24 26 38 45 47 46 43 38 35 29 22 20 16 12 10 3 1 1 360 359 353 340 329 335 359 3 3 25 25 18 12 4 355 343 339 343 349 354 350 345 343 334 283 252 272 269 258 259 250 241 243 248 246 238 232 233 239 244 241 230 225 223 221 223 228 232 232 231 229 227 224 224 225 226 225
194 186 180 184 195 256 271 269 268 271 306 348 11 23 32 35 33 32 30 27 21 19 16 13 11 8 6 6 4 3 358 351 341 335 1 12 10 27 24 19 16 9 0 352 344 339 340 342 344 343 340 334 309 275 266 245 251 267 257 249 249 248 245 238 231 230 235 242 243 234 226 225 226 227 230 232 234 234 234 233 232 231 232 232 231
203 204 208 204 212 259 268 263 265 274 287 320 354 10 25 30 30 30 30 28 22 18 17 13 9 9 11 9 6 4 3 3 359 353 4 15 24 30 24 18 13 6 359 358 357 351 346 342 343 344 345 336 316 302 286 240 242 240 237 279 274 251 246 241 235 231 230 234 239 242 237 233 232 232 232 233 235 236 237 236 236 236 236 236 235
211 218 227 221 231 260 264 257 260 272 285 300 326 352 14 26 28 31 34 31 25 20 17 13 8 7 12 13 10 12 15 10 4 0 2 14 40 32 23 17 8 1 358 3 8 8 4 358 355 351 348 345 333 324 333 279 227 210 150 269 339 315 259 252 246 236 229 229 234 241 242 238 237 236 235 236 238 238 239 239 239 239 240 240 240
214 225 228 229 255 277 268 256 259 269 279 284 293 311 344 8 19 28 32 32 28 20 16 14 9 5 8 14 12 11 14 11 6 5 5 16 25 15 17 16 7 359 0 8 12 15 18 15 9 1 353 353 351 342 343 343 214 210 266 150 111 55 264 282 277 252 236 228 228 235 240 240 239 239 238 238 239 241 242 242 241 241 243 244 244
224 228 226 238 270 285 266 255 260 269 277 279 280 282 293 327 357 16 24 29 28 19 12 11 8 3 2 9 9 3 3 1 3 8 9 11 4 10 23 18 10 4 4 11 14 17 23 22 16 11 4 358 353 344 340 347 281 231 238 187 96 91 241 295 316 278 251 235 227 229 234 237 238 238 241 243 244 246 247 248 248 248 248 247 247
236 235 237 251 269 271 257 256 264 275 282 280 276 276 279 292 318 346 9 21 23 17 12 8 4 359 357 359 0 359 357 354 359 6 8 9 3 14 25 15 9 9 4 6 14 18 19 19 17 14 9 2 352 346 341 346 333 259 238 245 262 286 313 336 317 301 298 260 236 232 233 237 240 239 241 245 247 245 245 251 251 247 247 248 248
239 243 246 251 259 265 265 262 267 274 276 272 268 266 270 274 293 323 348 11 16 16 13 8 2 357 352 349 346 351 354 355 359 2 5 12 9 8 12 6 3 5 2 4 12 17 14 15 17 16 12 7 2 355 341 342 345 324 286 269 265 265 275 295 308 319 328 323 294 260 246 245 247 244 240 241 246 247 246 248 247 244 242 243 245
242 247 250 254 261 268 269 267 270 269 266 270 266 258 263 268 276 299 318 352 8 11 9 6 0 355 352 348 343 347 355 356 358 354 350 2 14 16 11 3 0 360 1 4 10 15 15 16 18 17 14 11 8 4 350 342 339 334 333 312 288 277 269 262 258 265 286 315 330 321 285 267 256 249 245 243 247 249 248 248 246 245 244 242 242
248 252 256 260 261 264 268 269 270 267 261 272 271 256 257 264 264 277 293 316 350 1 4 1 354 352 353 352 347 349 358 359 360 357 340 350 11 16 12 8 5 3 3 3 6 11 12 14 18 17 14 11 10 7 5 0 349 340 337 326 319 316 298 273 256 252 251 262 284 289 298 306 284 263 258 255 252 250 250 250 248 246 245 246 247
251 255 259 261 259 262 270 269 267 266 260 263 265 253 249 255 255 261 275 286 311 337 355 353 344 346 350 354 352 350 356 358 356 354 348 355 6 8 12 13 7 6 6 1 360 1 358 360 11 16 13 10 9 8 10 12 8 357 341 327 311 308 309 295 272 267 264 259 258 253 258 285 293 287 282 272 264 259 255 252 250 249 248 248 249
261 260 261 262 263 265 269 267 263 263 260 257 255 248 243 250 254 255 264 271 277 297 335 343 336 341 345 350 353 350 352 354 352 354 0 3 6 6 4 356 356 3 4 0 358 356 352 348 358 8 8 5 4 4 5 8 11 6 350 339 324 305 286 278 294 297 284 268 267 265 254 255 267 279 288 289 280 270 262 255 250 249 249 249 251